Location: Ailingen
(47.6833°N, 9.5000°E)
Time: 11:28:15
(UTC+00:00)

COSMO-SKYMED 1 - Pass Details

Date: 18 November 2025
Orbit: 579 x 581 km, 97.9° (Epoch: 11 December)

Event Time Altitude Azimuth Distance (km) Brightness Sun altitude
Exits shadow 17:26:34 33° 53° (NE) 991 3.1 -17.4°
Maximum altitude 17:27:52 44° 99° (E) 810 2.7 -17.6°
Drops below altitude 10° 17:31:48 10° 172° (S) 1,890 5.1 -18.3°
Sets 17:34:01 0° 179° (S) 2,784 6.0 -18.6°
